Location: Most
(50.5133°N, 13.6207°E)
Time: 12:30:01
(UTC+01:00)

Oscar 11 - Pass Details

Date: 03 December 2021
Orbit: 611 x 625 km, 97.6° (Epoch: 23 January)

Event Time Altitude Azimuth Distance (km) Brightness Sun altitude
Rises 04:02:04 0° 33° (NNE) 2,919 11.0 -34.7°
Reaches altitude 10° 04:06:31 10° 76° (ENE) 1,999 10.5 -34.0°
Maximum altitude 04:07:10 10° 85° (E) 1,978 10.5 -33.9°
Drops below altitude 10° 04:07:49 10° 93° (E) 1,995 10.5 -33.8°
Sets 04:12:12 0° 136° (SE) 2,888 11.0 -33.1°
